Regional Weather Roundup
Issued by NWS Sterling, VA

Home | Current Version | Previous Version | Text Only | Print | Product List | Glossary Off
Versions: 1 2 3 4 5 6 7 8 9 10 11 12 13 14 15 16 17 18 19 20 21 22 23 24 25 26 27 28 29 30 31 32 33 34 35 36 37 38 39 40 41 42 43 44 45 46 47 48 49 50

000
ASUS41 KLWX 252011
RWRLWX

REGIONAL WEATHER ROUNDUP
NATIONAL WEATHER SERVICE BALTIMORE MD/WASHINGTON DC
300 PM EST SAT FEB 25 2017

Note: "FAIR" indicates few or no clouds below 12,000 feet
with no significant weather and/or obstructions to visibility.
 TC=TEMPERATURE CELSIUS

 * =Non NWS site. Station does not report precipitation (e.g. rain,
    snow, etc.), thunder, or fog.

DCZ001-MDZ009-015-VAZ040>042-051-053>054-252100-
WASHINGTON METRO

CITY           SKY/WX    TMP DP  RH WIND       PRES   REMARKS
WASHINGTON NAT PTSUNNY   69  60  73 SW13      29.44R THUNDER
DULLES         TSTM      54  48  80 NW20G41   29.50R
ANDREWS AFB    TSTM      68  59  73 S18G29    29.42F
FT BELVOIR     TSTM      68  59  73 SW6       29.47R
QUANTICO       CLOUDY    60  58  92 NW7       29.49R THUNDER
COLLEGE PARK*  CLOUDY    70  55  60 SW12      29.43S
LEESBURG*      CLOUDY    54  50  87 MISG      29.52R
MANASSAS*      TSTM      64  59  83 SW16G26   29.48R
GAITHERSBURG*  PTSUNNY   57  39  51 NW25G48   29.53R

$$

MDZ006>007-011-014-252100-
BALTIMORE METRO

CITY           SKY/WX    TMP DP  RH WIND       PRES   REMARKS
BWI AIRPORT    LGT RAIN  66  59  78 SE14G20   29.41F
MD SCIENCE CTR   N/A     68  58  70 MISG      29.43F
MARTIN STATE   PTSUNNY   66  61  82 SE23G29   29.45F
ANNAPOLIS      MOSUNNY   66  57  72 S12G24    29.43F
FORT MEADE*    CLOUDY    64  57  77 S7        29.44F

$$

MDZ012-015-019>023-252100-
MARYLAND EASTERN SHORE

CITY           SKY/WX    TMP DP  RH WIND       PRES   REMARKS
OCEAN CITY     MOSUNNY   57  52  83 VRB7      29.58F
SALISBURY      MOSUNNY   73  58  59 SE15G23   29.51F
BAY BRIDGE AP* MOSUNNY   68  57  68 SE17G23   29.43F
CAMBRIDGE*     MOSUNNY   72  57  60 S17G25    29.49F
EASTON*        SUNNY     73  57  56 S18       29.51F

$$

MDZ017>025-252100-
SOUTHERN MARYLAND

CITY           SKY/WX    TMP DP  RH WIND       PRES   REMARKS
PATUXENT RIVER PTSUNNY   70  58  65 SE14      29.46F
ST INIGOES     MOSUNNY   70  56  61 SE16G23   29.47F
LEONARDTOWN*   MOSUNNY   73  55  53 S12G17    29.47F

$$

MDZ003>005-252100-
NORTH CENTRAL MARYLAND

CITY           SKY/WX    TMP DP  RH WIND       PRES   REMARKS
FREDERICK*     TSTM      52  52 100 W23G37    29.56R
HAGERSTOWN APT CLOUDY    54  44  69 W20G29    29.53R
WESTMINSTER*   TSTM      52  50  93 SW9       29.53R

$$

MDZ501>502-252100-
WESTERN MARYLAND

CITY           SKY/WX    TMP DP  RH WIND       PRES   REMARKS
OAKLAND*       MOSUNNY   39  34  81 W24G32    29.59R WCI  28
CUMBERLAND*    CLOUDY    50  37  62 W13G18    29.65R

$$

VAZ025>031-252100-
SHENANDOAH VALLEY

CITY           SKY/WX    TMP DP  RH WIND       PRES   REMARKS
WINCHESTER*    RAIN      52  43  71 W9G17     29.56R
FRONT ROYAL*   CLOUDY    55  45  67 SW5       29.55R
LURAY*         CLOUDY    61  45  55 W9G18     29.56S
NEW MARKET*    CLOUDY    57  36  45 W12G20    29.58R
STAUNTON*      PTSUNNY   58  37  46 W16G24    29.62R
WAYNESBORO*    PTSUNNY   58  38  48 W17G25    29.61R

$$

WVZ021-048>050-054>055-252100-
EASTERN WEST VIRGINIA PANHANDLE

CITY           SKY/WX    TMP DP  RH WIND       PRES   REMARKS
MARTINSBURG    CLOUDY    53  41  63 W18G30    29.55R
PETERSBURG*    CLOUDY    54  38  54 W15G28    29.64R

$$

VAZ036>039-050-252100-
CENTRAL FOOTHILLS

CITY           SKY/WX    TMP DP  RH WIND       PRES   REMARKS
CHARLOTTESVILL CLOUDY    64  43  46 W12G23    29.53S
CULPEPER*      CLOUDY    65  58  78 W8        29.50R
ORANGE*        CLOUDY    61  52  72 SW18G25   29.52S
GORDONSVILLE*  MOSUNNY   64  49  57 W13G24    29.50F
WARRENTON*     CLOUDY    64  56  75 W12G23    29.48R

$$

VAZ055>057-252100-
NORTH AND CENTRAL PIEDMONT

CITY           SKY/WX    TMP DP  RH WIND       PRES   REMARKS
FREDERICKSBRG* LGT RAIN  66  56  70 W18G38    29.46R
STAFFORD*      CLOUDY    58  58 100 W10G24    29.52R

$$

NCZ024-NYZ072-PAZ021-071-VAZ022-071-252100-
OTHER REGIONAL OBSERVATIONS

CITY           SKY/WX    TMP DP  RH WIND       PRES   REMARKS
NEW YORK CITY  CLOUDY    62  55  77 S10G17    29.57F
PHILADELPHIA   MOSUNNY   72  55  55 S18G24    29.47F
PITTSBURGH     PTSUNNY   43  31  62 W20G30    29.65R
ROANOKE        MOSUNNY   63  37  38 W21G37    29.64F
RICHMOND       PTSUNNY   75  56  51 S21G36    29.46F
RALEIGH        PTSUNNY   80  52  37 SW20G33   29.57F

$$

ANZ530>537-252100-
MARINE OBSERVATIONS

STATION/POSITION TIME  TEMP    WIND        PRES
                       AIR SEA DIR/SP/G
                 (UTC) (F)     (DEG/KT/KT) (MB)
THOMAS PT LIGHT  2000   59 45  160/ 24/ 26   N/A
BALT KEY BRIDGE  1948   66     160/ 21/ 24  996.1F
COVE POINT       1942   51     190/ 16/ 18  999.2F
LEWISETTA        1942   72 52  200/ 20/ 23  997.9F
SOLOMONS ISLAND  1942   67 47  180/ 14/ 18   N/A
PINEY POINT      1948          160/ 15/ 18   N/A

$$




USA.gov is the U.S. government's official web portal to all federal, state and local government web resources and services.